Year,Month,Day,Hour,Minute,Value (Times are PST for temperature in C)
2012,07,14,00,00,15.40
2012,07,14,00,01,15.40
2012,07,14,00,02,15.40
2012,07,14,00,03,15.40
2012,07,14,00,04,15.40
2012,07,14,00,05,15.40
2012,07,14,00,06,15.30
2012,07,14,00,07,15.30
2012,07,14,00,08,15.30
2012,07,14,00,09,15.30
2012,07,14,00,10,15.30
2012,07,14,00,11,15.30
2012,07,14,00,12,15.30
2012,07,14,00,13,15.30
2012,07,14,00,14,15.30
2012,07,14,00,15,15.30
2012,07,14,00,16,15.30
2012,07,14,00,17,15.30
2012,07,14,00,18,15.30
2012,07,14,00,19,15.30
2012,07,14,00,20,15.30
2012,07,14,00,21,15.30
2012,07,14,00,22,15.30
2012,07,14,00,23,15.20
2012,07,14,00,24,15.20
2012,07,14,00,25,15.20
2012,07,14,00,26,15.10
2012,07,14,00,27,15.10
2012,07,14,00,28,15.00
2012,07,14,00,29,15.00
2012,07,14,00,30,15.00
2012,07,14,00,31,15.00
2012,07,14,00,32,15.00
2012,07,14,00,33,15.00
2012,07,14,00,34,15.00
2012,07,14,00,35,15.00
2012,07,14,00,36,15.00
2012,07,14,00,37,15.00
2012,07,14,00,38,14.90
2012,07,14,00,39,14.90
2012,07,14,00,40,14.90
2012,07,14,00,41,14.90
2012,07,14,00,42,15.00
2012,07,14,00,43,15.00
2012,07,14,00,44,15.00
2012,07,14,00,45,15.00
2012,07,14,00,46,14.90
2012,07,14,00,47,14.90
2012,07,14,00,48,14.90
2012,07,14,00,49,15.00
2012,07,14,00,50,15.00
2012,07,14,00,51,15.00
2012,07,14,00,52,15.00
2012,07,14,00,53,15.00
2012,07,14,00,54,14.90
2012,07,14,00,55,15.00
2012,07,14,00,56,14.90
2012,07,14,00,57,15.00
2012,07,14,00,58,15.00
2012,07,14,00,59,14.90
2012,07,14,01,00,14.90
2012,07,14,01,01,14.90
2012,07,14,01,02,15.00
2012,07,14,01,03,15.00
2012,07,14,01,04,15.00
2012,07,14,01,05,15.00
2012,07,14,01,06,15.00
2012,07,14,01,07,15.00
2012,07,14,01,08,15.00
2012,07,14,01,09,15.00
2012,07,14,01,10,15.00
2012,07,14,01,11,15.00
2012,07,14,01,12,15.00
2012,07,14,01,13,15.00
2012,07,14,01,14,15.00
2012,07,14,01,15,15.00
2012,07,14,01,16,15.00
2012,07,14,01,17,15.00
2012,07,14,01,18,15.00
2012,07,14,01,19,15.00
2012,07,14,01,20,15.00
2012,07,14,01,21,15.00
2012,07,14,01,22,15.00
2012,07,14,01,23,15.00
2012,07,14,01,24,15.00
2012,07,14,01,25,15.00
2012,07,14,01,26,15.00
2012,07,14,01,27,15.00
2012,07,14,01,28,15.00
2012,07,14,01,29,15.00
2012,07,14,01,30,15.00
2012,07,14,01,31,15.00
2012,07,14,01,32,15.00
2012,07,14,01,33,15.00
2012,07,14,01,34,15.00
2012,07,14,01,35,15.00
2012,07,14,01,36,15.00
2012,07,14,01,37,15.00
2012,07,14,01,38,15.00
2012,07,14,01,39,15.00
2012,07,14,01,40,15.00
2012,07,14,01,41,15.00
2012,07,14,01,42,15.00
2012,07,14,01,43,15.00
2012,07,14,01,44,15.00
2012,07,14,01,45,15.00
2012,07,14,01,46,15.00
2012,07,14,01,47,15.00
2012,07,14,01,48,15.00
2012,07,14,01,49,15.00
2012,07,14,01,50,15.00
2012,07,14,01,51,15.00
2012,07,14,01,52,15.00
2012,07,14,01,53,15.00
2012,07,14,01,54,15.00
2012,07,14,01,55,15.00
2012,07,14,01,56,14.90
2012,07,14,01,57,14.90
2012,07,14,01,58,14.80
2012,07,14,01,59,14.80
2012,07,14,02,00,14.80
2012,07,14,02,01,14.80
2012,07,14,02,02,14.80
2012,07,14,02,03,14.80
2012,07,14,02,04,14.80
2012,07,14,02,05,14.80
2012,07,14,02,06,14.80
2012,07,14,02,07,14.80
2012,07,14,02,08,14.80
2012,07,14,02,09,14.80
2012,07,14,02,10,14.80
2012,07,14,02,11,14.80
2012,07,14,02,12,14.80
2012,07,14,02,13,14.80
2012,07,14,02,14,14.80
2012,07,14,02,15,14.80
2012,07,14,02,16,14.80
2012,07,14,02,17,14.80
2012,07,14,02,18,14.80
2012,07,14,02,19,14.80
2012,07,14,02,20,14.80
2012,07,14,02,21,14.80
2012,07,14,02,22,14.80
2012,07,14,02,23,14.80
2012,07,14,02,24,14.80
2012,07,14,02,25,14.80
2012,07,14,02,26,14.80
2012,07,14,02,27,14.80
2012,07,14,02,28,14.80
2012,07,14,02,29,14.80
2012,07,14,02,30,14.80
2012,07,14,02,31,14.80
2012,07,14,02,32,14.70
2012,07,14,02,33,14.70
2012,07,14,02,34,14.70
2012,07,14,02,35,14.70
2012,07,14,02,36,14.70
2012,07,14,02,37,14.70
2012,07,14,02,38,14.70
2012,07,14,02,39,14.60
2012,07,14,02,40,14.60
2012,07,14,02,41,14.60
2012,07,14,02,42,14.60
2012,07,14,02,43,14.60
2012,07,14,02,44,14.50
2012,07,14,02,45,14.50
2012,07,14,02,46,14.50
2012,07,14,02,47,14.50
2012,07,14,02,48,14.40
2012,07,14,02,49,14.40
2012,07,14,02,50,14.40
2012,07,14,02,51,14.40
2012,07,14,02,52,14.40
2012,07,14,02,53,14.40
2012,07,14,02,54,14.40
2012,07,14,02,55,14.40
2012,07,14,02,56,14.40
2012,07,14,02,57,14.40
2012,07,14,02,58,14.40
2012,07,14,02,59,14.40
2012,07,14,03,00,14.40
2012,07,14,03,01,14.40
2012,07,14,03,02,14.40
2012,07,14,03,03,14.40
2012,07,14,03,04,14.40
2012,07,14,03,05,14.50
2012,07,14,03,06,14.50
2012,07,14,03,07,14.50
2012,07,14,03,08,14.50
2012,07,14,03,09,14.50
2012,07,14,03,10,14.50
2012,07,14,03,11,14.50
2012,07,14,03,12,14.50
2012,07,14,03,13,14.50
2012,07,14,03,14,14.50
2012,07,14,03,15,14.50
2012,07,14,03,16,14.50
2012,07,14,03,17,14.50
2012,07,14,03,18,14.50
2012,07,14,03,19,14.40
2012,07,14,03,20,14.40
2012,07,14,03,21,14.40
2012,07,14,03,22,14.40
2012,07,14,03,23,14.40
2012,07,14,03,24,14.40
2012,07,14,03,25,14.40
2012,07,14,03,26,14.30
2012,07,14,03,27,14.30
2012,07,14,03,28,14.30
2012,07,14,03,29,14.30
2012,07,14,03,30,14.20
2012,07,14,03,31,14.20
2012,07,14,03,32,14.20
2012,07,14,03,33,14.30
2012,07,14,03,34,14.30
2012,07,14,03,35,14.30
2012,07,14,03,36,14.30
2012,07,14,03,37,14.30
2012,07,14,03,38,14.30
2012,07,14,03,39,14.30
2012,07,14,03,40,14.30
2012,07,14,03,41,14.30
2012,07,14,03,42,14.30
2012,07,14,03,43,14.30
2012,07,14,03,44,14.40
2012,07,14,03,45,14.40
2012,07,14,03,46,14.40
2012,07,14,03,47,14.40
2012,07,14,03,48,14.40
2012,07,14,03,49,14.40
2012,07,14,03,50,14.40
2012,07,14,03,51,14.40
2012,07,14,03,52,14.40
2012,07,14,03,53,14.40
2012,07,14,03,54,14.40
2012,07,14,03,55,14.40
2012,07,14,03,56,14.50
2012,07,14,03,57,14.40
2012,07,14,03,58,14.40
2012,07,14,03,59,14.40
2012,07,14,04,00,14.40
2012,07,14,04,01,14.40
2012,07,14,04,02,14.40
2012,07,14,04,03,14.40
2012,07,14,04,04,14.40
2012,07,14,04,05,14.40
2012,07,14,04,06,14.40
2012,07,14,04,07,14.40
2012,07,14,04,08,14.40
2012,07,14,04,09,14.40
2012,07,14,04,10,14.40
2012,07,14,04,11,14.40
2012,07,14,04,12,14.50
2012,07,14,04,13,14.50
2012,07,14,04,14,14.50
2012,07,14,04,15,14.50
2012,07,14,04,16,14.50
2012,07,14,04,17,14.50
2012,07,14,04,18,14.50
2012,07,14,04,19,14.50
2012,07,14,04,20,14.50
2012,07,14,04,21,14.50
2012,07,14,04,22,14.50
2012,07,14,04,23,14.50
2012,07,14,04,24,14.40
2012,07,14,04,25,14.40
2012,07,14,04,26,14.40
2012,07,14,04,27,14.40
2012,07,14,04,28,14.40
2012,07,14,04,29,14.40
2012,07,14,04,30,14.40
2012,07,14,04,31,14.40
2012,07,14,04,32,14.40
2012,07,14,04,33,14.40
2012,07,14,04,34,14.30
2012,07,14,04,35,14.30
2012,07,14,04,36,14.30
2012,07,14,04,37,14.30
2012,07,14,04,38,14.30
2012,07,14,04,39,14.40
2012,07,14,04,40,14.40
2012,07,14,04,41,14.40
2012,07,14,04,42,14.40
2012,07,14,04,43,14.40
2012,07,14,04,44,14.40
2012,07,14,04,45,14.40
2012,07,14,04,46,14.40
2012,07,14,04,47,14.40
2012,07,14,04,48,14.40
2012,07,14,04,49,14.40
2012,07,14,04,50,14.40
2012,07,14,04,51,14.40
2012,07,14,04,52,14.40
2012,07,14,04,53,14.40
2012,07,14,04,54,14.40
2012,07,14,04,55,14.40
2012,07,14,04,56,14.40
2012,07,14,04,57,14.40
2012,07,14,04,58,14.40
2012,07,14,04,59,14.40
2012,07,14,05,00,14.40
2012,07,14,05,01,14.40
2012,07,14,05,02,14.30
2012,07,14,05,03,14.30
2012,07,14,05,04,14.30
2012,07,14,05,05,14.30
2012,07,14,05,06,14.30
2012,07,14,05,07,14.30
2012,07,14,05,08,14.30
2012,07,14,05,09,14.30
2012,07,14,05,10,14.30
2012,07,14,05,11,14.30
2012,07,14,05,12,14.30
2012,07,14,05,13,14.30
2012,07,14,05,14,14.30
2012,07,14,05,15,14.30
2012,07,14,05,16,14.30
2012,07,14,05,17,14.30
2012,07,14,05,18,14.30
2012,07,14,05,19,14.30
2012,07,14,05,20,14.20
2012,07,14,05,21,14.20
2012,07,14,05,22,14.20
2012,07,14,05,23,14.20
2012,07,14,05,24,14.20
2012,07,14,05,25,14.20
2012,07,14,05,26,14.20
2012,07,14,05,27,14.20
2012,07,14,05,28,14.20
2012,07,14,05,29,14.20
2012,07,14,05,30,14.30
2012,07,14,05,31,14.30
2012,07,14,05,32,14.30
2012,07,14,05,33,14.30
2012,07,14,05,34,14.40
2012,07,14,05,35,14.40
2012,07,14,05,36,14.30
2012,07,14,05,37,14.30
2012,07,14,05,38,14.30
2012,07,14,05,39,14.30
2012,07,14,05,40,14.50
2012,07,14,05,41,14.60
2012,07,14,05,42,14.60
2012,07,14,05,43,14.60
2012,07,14,05,44,14.60
2012,07,14,05,45,14.60
2012,07,14,05,46,14.60
2012,07,14,05,47,14.60
2012,07,14,05,48,14.50
2012,07,14,05,49,14.50
2012,07,14,05,50,14.50
2012,07,14,05,51,14.40
2012,07,14,05,52,14.40
2012,07,14,05,53,14.40
2012,07,14,05,54,14.40
2012,07,14,05,55,14.40
2012,07,14,05,56,14.40
2012,07,14,05,57,14.40
2012,07,14,05,58,14.40
2012,07,14,05,59,14.40
2012,07,14,06,00,14.40
2012,07,14,06,01,14.30
2012,07,14,06,02,14.30
2012,07,14,06,03,14.30
2012,07,14,06,04,14.30
2012,07,14,06,05,14.30
2012,07,14,06,06,14.30
2012,07,14,06,07,14.30
2012,07,14,06,08,14.30
2012,07,14,06,09,14.30
2012,07,14,06,10,14.30
2012,07,14,06,11,14.20
2012,07,14,06,12,14.20
2012,07,14,06,13,14.20
2012,07,14,06,14,14.20
2012,07,14,06,15,14.20
2012,07,14,06,16,14.20
2012,07,14,06,17,14.20
2012,07,14,06,18,14.30
2012,07,14,06,19,14.30
2012,07,14,06,20,14.30
2012,07,14,06,21,14.30
2012,07,14,06,22,14.30
2012,07,14,06,23,14.40
2012,07,14,06,24,14.40
2012,07,14,06,25,14.40
2012,07,14,06,26,14.40
2012,07,14,06,27,14.50
2012,07,14,06,28,14.50
2012,07,14,06,29,14.50
2012,07,14,06,30,14.60
2012,07,14,06,31,14.60
2012,07,14,06,32,14.60
2012,07,14,06,33,14.70
2012,07,14,06,34,14.70
2012,07,14,06,35,14.80
2012,07,14,06,36,14.80
2012,07,14,06,37,14.80
2012,07,14,06,38,14.90
2012,07,14,06,39,14.90
2012,07,14,06,40,15.00
2012,07,14,06,41,15.00
2012,07,14,06,42,15.00
2012,07,14,06,43,15.00
2012,07,14,06,44,15.00
2012,07,14,06,45,15.00
2012,07,14,06,46,15.00
2012,07,14,06,47,15.10
2012,07,14,06,48,15.20
2012,07,14,06,49,15.30
2012,07,14,06,50,15.40
2012,07,14,06,51,15.40
2012,07,14,06,52,15.40
2012,07,14,06,53,15.50
2012,07,14,06,54,15.50
2012,07,14,06,55,15.60
2012,07,14,06,56,15.60
2012,07,14,06,57,15.60
2012,07,14,06,58,15.60
2012,07,14,06,59,15.70
2012,07,14,07,00,15.70
2012,07,14,07,01,15.70
2012,07,14,07,02,15.80
2012,07,14,07,03,15.80
2012,07,14,07,04,15.80
2012,07,14,07,05,15.90
2012,07,14,07,06,15.90
2012,07,14,07,07,16.00
2012,07,14,07,08,16.20
2012,07,14,07,09,16.20
2012,07,14,07,10,16.30
2012,07,14,07,11,16.40
2012,07,14,07,12,16.50
2012,07,14,07,13,16.60
2012,07,14,07,14,16.70
2012,07,14,07,15,16.80
2012,07,14,07,16,16.90
2012,07,14,07,17,17.00
2012,07,14,07,18,17.10
2012,07,14,07,19,17.20
2012,07,14,07,20,17.30
2012,07,14,07,21,17.40
2012,07,14,07,22,17.50
2012,07,14,07,23,17.60
2012,07,14,07,24,17.70
2012,07,14,07,25,17.80
2012,07,14,07,26,17.90
2012,07,14,07,27,18.00
2012,07,14,07,28,18.00
2012,07,14,07,29,18.10
2012,07,14,07,30,18.10
2012,07,14,07,31,18.20
2012,07,14,07,32,18.30
2012,07,14,07,33,18.30
2012,07,14,07,34,18.40
2012,07,14,07,35,18.50
2012,07,14,07,36,18.60
2012,07,14,07,37,18.70
2012,07,14,07,38,18.80
2012,07,14,07,39,18.90
2012,07,14,07,40,18.90
2012,07,14,07,41,18.90
2012,07,14,07,42,19.00
2012,07,14,07,43,19.00
2012,07,14,07,44,19.10
2012,07,14,07,45,19.10
2012,07,14,07,46,19.20
2012,07,14,07,47,19.20
2012,07,14,07,48,19.30
2012,07,14,07,49,19.40
2012,07,14,07,50,19.50
2012,07,14,07,51,19.50
2012,07,14,07,52,19.50
2012,07,14,07,53,19.60
2012,07,14,07,54,19.60
2012,07,14,07,55,19.60
2012,07,14,07,56,19.70
2012,07,14,07,57,19.70
2012,07,14,07,58,19.70
2012,07,14,07,59,19.60
2012,07,14,08,00,19.60
2012,07,14,08,01,19.60
2012,07,14,08,02,19.60
2012,07,14,08,03,19.50
2012,07,14,08,04,19.50
2012,07,14,08,05,19.50
2012,07,14,08,06,19.60
2012,07,14,08,07,19.60
2012,07,14,08,08,19.70
2012,07,14,08,09,19.70
2012,07,14,08,10,19.70
2012,07,14,08,11,19.80
2012,07,14,08,12,19.80
2012,07,14,08,13,19.80
2012,07,14,08,14,19.90
2012,07,14,08,15,19.90
2012,07,14,08,16,20.00
2012,07,14,08,17,20.10
2012,07,14,08,18,20.10
2012,07,14,08,19,20.20
2012,07,14,08,20,20.20
2012,07,14,08,21,20.20
2012,07,14,08,22,20.30
2012,07,14,08,23,20.30
2012,07,14,08,24,20.40
2012,07,14,08,25,20.50
2012,07,14,08,26,20.50
2012,07,14,08,27,20.60
2012,07,14,08,28,20.70
2012,07,14,08,29,20.70
2012,07,14,08,30,20.70
2012,07,14,08,31,20.80
2012,07,14,08,32,20.80
2012,07,14,08,33,20.80
2012,07,14,08,34,20.80
2012,07,14,08,35,20.80
2012,07,14,08,36,20.80
2012,07,14,08,37,20.80
2012,07,14,08,38,20.70
2012,07,14,08,39,20.70
2012,07,14,08,40,20.70
2012,07,14,08,41,20.60
2012,07,14,08,42,20.50
2012,07,14,08,43,20.40
2012,07,14,08,44,20.40
2012,07,14,08,45,20.50
2012,07,14,08,46,20.60
2012,07,14,08,47,20.70
2012,07,14,08,48,20.80
2012,07,14,08,49,20.90
2012,07,14,08,50,21.00
2012,07,14,08,51,21.10
2012,07,14,08,52,21.10
2012,07,14,08,53,21.20
2012,07,14,08,54,21.10
2012,07,14,08,55,21.00
2012,07,14,08,56,20.90
2012,07,14,08,57,20.80
2012,07,14,08,58,20.70
2012,07,14,08,59,20.70
2012,07,14,09,00,20.70
2012,07,14,09,01,20.80
2012,07,14,09,02,20.80
2012,07,14,09,03,20.80
2012,07,14,09,04,20.90
2012,07,14,09,05,20.90
2012,07,14,09,06,20.90
2012,07,14,09,07,20.90
2012,07,14,09,08,20.80
2012,07,14,09,09,20.70
2012,07,14,09,10,20.70
2012,07,14,09,11,20.80
2012,07,14,09,12,20.70
2012,07,14,09,13,20.70
2012,07,14,09,14,20.70
2012,07,14,09,15,20.70
2012,07,14,09,16,20.60
2012,07,14,09,17,20.60
2012,07,14,09,18,20.60
2012,07,14,09,19,20.70
2012,07,14,09,20,20.60
2012,07,14,09,21,20.60
2012,07,14,09,22,20.60
2012,07,14,09,23,20.60
2012,07,14,09,24,20.60
2012,07,14,09,25,20.60
2012,07,14,09,26,20.60
2012,07,14,09,27,20.60
2012,07,14,09,28,20.70
2012,07,14,09,29,20.70
2012,07,14,09,30,20.70
2012,07,14,09,31,20.70
2012,07,14,09,32,20.70
2012,07,14,09,33,20.70
2012,07,14,09,34,20.70
2012,07,14,09,35,20.60
2012,07,14,09,36,20.60
2012,07,14,09,37,20.60
2012,07,14,09,38,20.60
2012,07,14,09,39,20.70
2012,07,14,09,40,20.70
2012,07,14,09,41,20.70
2012,07,14,09,42,20.60
2012,07,14,09,43,20.60
2012,07,14,09,44,20.50
2012,07,14,09,45,20.40
2012,07,14,09,46,20.40
2012,07,14,09,47,20.40
2012,07,14,09,48,20.40
2012,07,14,09,49,20.40
2012,07,14,09,50,20.40
2012,07,14,09,51,20.50
2012,07,14,09,52,20.60
2012,07,14,09,53,20.60
2012,07,14,09,54,20.60
2012,07,14,09,55,20.60
2012,07,14,09,56,20.60
2012,07,14,09,57,20.60
2012,07,14,09,58,20.60
2012,07,14,09,59,20.70
2012,07,14,10,00,20.60
2012,07,14,10,01,20.60
2012,07,14,10,02,20.60
2012,07,14,10,03,20.60
2012,07,14,10,04,20.60
2012,07,14,10,05,20.50
2012,07,14,10,06,20.50
2012,07,14,10,07,20.60
2012,07,14,10,08,20.60
2012,07,14,10,09,20.60
2012,07,14,10,10,20.70
2012,07,14,10,11,20.70
2012,07,14,10,12,20.70
2012,07,14,10,13,20.70
2012,07,14,10,14,20.70
2012,07,14,10,15,20.70
2012,07,14,10,16,20.80
2012,07,14,10,17,20.80
2012,07,14,10,18,20.80
2012,07,14,10,19,20.80
2012,07,14,10,20,20.80
2012,07,14,10,21,20.90
2012,07,14,10,22,20.90
2012,07,14,10,23,20.90
2012,07,14,10,24,20.80
2012,07,14,10,25,20.80
2012,07,14,10,26,20.80
2012,07,14,10,27,20.80
2012,07,14,10,28,20.70
2012,07,14,10,29,20.70
2012,07,14,10,30,20.70
2012,07,14,10,31,20.70
2012,07,14,10,32,20.60
2012,07,14,10,33,20.60
2012,07,14,10,34,20.60
2012,07,14,10,35,20.70
2012,07,14,10,36,20.70
2012,07,14,10,37,20.70
2012,07,14,10,38,20.70
2012,07,14,10,39,20.70
2012,07,14,10,40,20.70
2012,07,14,10,41,20.80
2012,07,14,10,42,20.80
2012,07,14,10,43,20.80
2012,07,14,10,44,20.80
2012,07,14,10,45,20.80
2012,07,14,10,46,20.90
2012,07,14,10,47,21.00
2012,07,14,10,48,21.10
2012,07,14,10,49,21.30
2012,07,14,10,50,21.40
2012,07,14,10,51,21.40
2012,07,14,10,52,21.40
2012,07,14,10,53,21.30
2012,07,14,10,54,21.30
2012,07,14,10,55,21.30
2012,07,14,10,56,21.30
2012,07,14,10,57,21.30
2012,07,14,10,58,21.30
2012,07,14,10,59,21.30
2012,07,14,11,00,21.30
2012,07,14,11,01,21.30
2012,07,14,11,02,21.40
2012,07,14,11,03,21.40
2012,07,14,11,04,21.40
2012,07,14,11,05,21.40
2012,07,14,11,06,21.30
2012,07,14,11,07,21.30
2012,07,14,11,08,21.40
2012,07,14,11,09,21.40
2012,07,14,11,10,21.40
2012,07,14,11,11,21.40
2012,07,14,11,12,21.30
2012,07,14,11,13,21.30
2012,07,14,11,14,21.30
2012,07,14,11,15,21.20
2012,07,14,11,16,21.20
2012,07,14,11,17,21.30
2012,07,14,11,18,21.30
2012,07,14,11,19,21.30
2012,07,14,11,20,21.30
2012,07,14,11,21,21.30
2012,07,14,11,22,21.30
2012,07,14,11,23,21.30
2012,07,14,11,24,21.40
2012,07,14,11,25,21.40
2012,07,14,11,26,21.40
2012,07,14,11,27,21.50
2012,07,14,11,28,21.60
2012,07,14,11,29,21.70
2012,07,14,11,30,21.70
2012,07,14,11,31,21.60
2012,07,14,11,32,21.60
2012,07,14,11,33,21.60
2012,07,14,11,34,21.70
2012,07,14,11,35,21.70
2012,07,14,11,36,21.60
2012,07,14,11,37,21.60
2012,07,14,11,38,21.60
2012,07,14,11,39,21.60
2012,07,14,11,40,21.60
2012,07,14,11,41,21.60
2012,07,14,11,42,21.60
2012,07,14,11,43,21.60
2012,07,14,11,44,21.70
2012,07,14,11,45,21.80
2012,07,14,11,46,21.80
2012,07,14,11,47,21.80
2012,07,14,11,48,21.70
2012,07,14,11,49,21.70
2012,07,14,11,50,21.70
2012,07,14,11,51,21.70
2012,07,14,11,52,21.70
2012,07,14,11,53,21.70
2012,07,14,11,54,21.70
2012,07,14,11,55,21.70
2012,07,14,11,56,21.60
2012,07,14,11,57,21.60
2012,07,14,11,58,21.60
2012,07,14,11,59,21.70
2012,07,14,12,00,21.80
2012,07,14,12,01,22.00
2012,07,14,12,02,22.20
2012,07,14,12,03,22.30
2012,07,14,12,04,22.20
2012,07,14,12,05,22.20
2012,07,14,12,06,22.20
2012,07,14,12,07,22.20
2012,07,14,12,08,22.20
2012,07,14,12,09,22.20
2012,07,14,12,10,22.10
2012,07,14,12,11,22.00
2012,07,14,12,12,21.90
2012,07,14,12,13,21.80
2012,07,14,12,14,21.80
2012,07,14,12,15,21.80
2012,07,14,12,16,21.80
2012,07,14,12,17,21.80
2012,07,14,12,18,21.90
2012,07,14,12,19,22.00
2012,07,14,12,20,22.10
2012,07,14,12,21,22.10
2012,07,14,12,22,22.20
2012,07,14,12,23,22.30
2012,07,14,12,24,22.30
2012,07,14,12,25,22.30
2012,07,14,12,26,22.30
2012,07,14,12,27,22.30
2012,07,14,12,28,22.20
2012,07,14,12,29,22.10
2012,07,14,12,30,22.10
2012,07,14,12,31,22.00
2012,07,14,12,32,22.00
2012,07,14,12,33,22.00
2012,07,14,12,34,22.00
2012,07,14,12,35,22.00
2012,07,14,12,36,22.10
2012,07,14,12,37,22.20
2012,07,14,12,38,22.20
2012,07,14,12,39,22.20
2012,07,14,12,40,22.10
2012,07,14,12,41,22.10
2012,07,14,12,42,22.00
2012,07,14,12,43,22.10
2012,07,14,12,44,22.10
2012,07,14,12,45,22.10
2012,07,14,12,46,22.10
2012,07,14,12,47,22.20
2012,07,14,12,48,22.40
2012,07,14,12,49,22.50
2012,07,14,12,50,22.50
2012,07,14,12,51,22.40
2012,07,14,12,52,22.30
2012,07,14,12,53,22.20
2012,07,14,12,54,22.10
2012,07,14,12,55,22.10
2012,07,14,12,56,22.10
2012,07,14,12,57,22.20
2012,07,14,12,58,22.20
2012,07,14,12,59,22.20
2012,07,14,13,00,22.30
2012,07,14,13,01,22.30
2012,07,14,13,02,22.30
2012,07,14,13,03,22.20
2012,07,14,13,04,22.10
2012,07,14,13,05,22.00
2012,07,14,13,06,22.00
2012,07,14,13,07,22.10
2012,07,14,13,08,22.20
2012,07,14,13,09,22.30
2012,07,14,13,10,22.40
2012,07,14,13,11,22.50
2012,07,14,13,12,22.60
2012,07,14,13,13,22.50
2012,07,14,13,14,22.50
2012,07,14,13,15,22.50
2012,07,14,13,16,22.60
2012,07,14,13,17,22.60
2012,07,14,13,18,22.60
2012,07,14,13,19,22.60
2012,07,14,13,20,22.70
2012,07,14,13,21,22.80
2012,07,14,13,22,22.90
2012,07,14,13,23,23.00
2012,07,14,13,24,23.10
2012,07,14,13,25,23.30
2012,07,14,13,26,23.50
2012,07,14,13,27,23.60
2012,07,14,13,28,23.50
2012,07,14,13,29,23.40
2012,07,14,13,30,23.30
2012,07,14,13,31,23.30
2012,07,14,13,32,23.30
2012,07,14,13,33,23.30
2012,07,14,13,34,23.30
2012,07,14,13,35,23.40
2012,07,14,13,36,23.50
2012,07,14,13,37,23.40
2012,07,14,13,38,23.40
2012,07,14,13,39,23.40
2012,07,14,13,40,23.30
2012,07,14,13,41,23.30
2012,07,14,13,42,23.30
2012,07,14,13,43,23.30
2012,07,14,13,44,23.30
2012,07,14,13,45,23.20
2012,07,14,13,46,23.20
2012,07,14,13,47,23.10
2012,07,14,13,48,23.00
2012,07,14,13,49,23.00
2012,07,14,13,50,23.00
2012,07,14,13,51,23.00
2012,07,14,13,52,23.10
2012,07,14,13,53,23.30
2012,07,14,13,54,23.30
2012,07,14,13,55,23.30
2012,07,14,13,56,23.40
2012,07,14,13,57,23.40
2012,07,14,13,58,23.40
2012,07,14,13,59,23.40
2012,07,14,14,00,23.50
2012,07,14,14,01,23.60
2012,07,14,14,02,23.60
2012,07,14,14,03,23.70
2012,07,14,14,04,23.70
2012,07,14,14,05,23.80
2012,07,14,14,06,23.80
2012,07,14,14,07,23.80
2012,07,14,14,08,23.80
2012,07,14,14,09,23.80
2012,07,14,14,10,23.80
2012,07,14,14,11,23.70
2012,07,14,14,12,23.60
2012,07,14,14,13,23.50
2012,07,14,14,14,23.40
2012,07,14,14,15,23.40
2012,07,14,14,16,23.40
2012,07,14,14,17,23.30
2012,07,14,14,18,23.20
2012,07,14,14,19,23.20
2012,07,14,14,20,23.20
2012,07,14,14,21,23.10
2012,07,14,14,22,23.10
2012,07,14,14,23,23.10
2012,07,14,14,24,23.20
2012,07,14,14,25,23.30
2012,07,14,14,26,23.30
2012,07,14,14,27,23.30
2012,07,14,14,28,23.30
2012,07,14,14,29,23.30
2012,07,14,14,30,23.30
2012,07,14,14,31,23.30
2012,07,14,14,32,23.40
2012,07,14,14,33,23.50
2012,07,14,14,34,23.70
2012,07,14,14,35,23.80
2012,07,14,14,36,23.80
2012,07,14,14,37,23.80
2012,07,14,14,38,23.80
2012,07,14,14,39,23.80
2012,07,14,14,40,23.90
2012,07,14,14,41,24.00
2012,07,14,14,42,24.00
2012,07,14,14,43,24.00
2012,07,14,14,44,24.10
2012,07,14,14,45,24.10
2012,07,14,14,46,24.00
2012,07,14,14,47,23.80
2012,07,14,14,48,23.70
2012,07,14,14,49,23.70
2012,07,14,14,50,23.70
2012,07,14,14,51,23.70
2012,07,14,14,52,23.80
2012,07,14,14,53,23.80
2012,07,14,14,54,23.90
2012,07,14,14,55,24.00
2012,07,14,14,56,24.20
2012,07,14,14,57,24.30
2012,07,14,14,58,24.30
2012,07,14,14,59,24.30
2012,07,14,15,00,24.30
2012,07,14,15,01,24.30
2012,07,14,15,02,24.30
2012,07,14,15,03,24.20
2012,07,14,15,04,24.20
2012,07,14,15,05,24.20
2012,07,14,15,06,24.20
2012,07,14,15,07,24.20
2012,07,14,15,08,24.20
2012,07,14,15,09,24.10
2012,07,14,15,10,24.10
2012,07,14,15,11,24.10
2012,07,14,15,12,24.20
2012,07,14,15,13,24.30
2012,07,14,15,14,24.30
2012,07,14,15,15,24.30
2012,07,14,15,16,24.30
2012,07,14,15,17,24.40
2012,07,14,15,18,24.50
2012,07,14,15,19,24.60
2012,07,14,15,20,24.60
2012,07,14,15,21,24.60
2012,07,14,15,22,24.50
2012,07,14,15,23,24.50
2012,07,14,15,24,24.40
2012,07,14,15,25,24.40
2012,07,14,15,26,24.40
2012,07,14,15,27,24.40
2012,07,14,15,28,24.40
2012,07,14,15,29,24.40
2012,07,14,15,30,24.50
2012,07,14,15,31,24.50
2012,07,14,15,32,24.60
2012,07,14,15,33,24.70
2012,07,14,15,34,24.70
2012,07,14,15,35,24.70
2012,07,14,15,36,24.70
2012,07,14,15,37,24.70
2012,07,14,15,38,24.70
2012,07,14,15,39,24.70
2012,07,14,15,40,24.70
2012,07,14,15,41,24.70
2012,07,14,15,42,24.80
2012,07,14,15,43,24.80
2012,07,14,15,44,24.80
2012,07,14,15,45,24.80
2012,07,14,15,46,24.80
2012,07,14,15,47,24.80
2012,07,14,15,48,24.70
2012,07,14,15,49,24.50
2012,07,14,15,50,24.40
2012,07,14,15,51,24.40
2012,07,14,15,52,24.30
2012,07,14,15,53,24.30
2012,07,14,15,54,24.30
2012,07,14,15,55,24.30
2012,07,14,15,56,24.30
2012,07,14,15,57,24.30
2012,07,14,15,58,24.20
2012,07,14,15,59,24.20
2012,07,14,16,00,24.20
2012,07,14,16,01,24.20
2012,07,14,16,02,24.30
2012,07,14,16,03,24.30
2012,07,14,16,04,24.30
2012,07,14,16,05,24.20
2012,07,14,16,06,24.10
2012,07,14,16,07,24.10
2012,07,14,16,08,24.10
2012,07,14,16,09,24.10
2012,07,14,16,10,24.10
2012,07,14,16,11,24.20
2012,07,14,16,12,24.20
2012,07,14,16,13,24.20
2012,07,14,16,14,24.20
2012,07,14,16,15,24.30
2012,07,14,16,16,24.30
2012,07,14,16,17,24.30
2012,07,14,16,18,24.20
2012,07,14,16,19,24.20
2012,07,14,16,20,24.20
2012,07,14,16,21,24.10
2012,07,14,16,22,24.10
2012,07,14,16,23,24.20
2012,07,14,16,24,24.30
2012,07,14,16,25,24.40
2012,07,14,16,26,24.60
2012,07,14,16,27,24.70
2012,07,14,16,28,24.70
2012,07,14,16,29,24.70
2012,07,14,16,30,24.80
2012,07,14,16,31,24.90
2012,07,14,16,32,25.00
2012,07,14,16,33,25.10
2012,07,14,16,34,25.10
2012,07,14,16,35,25.20
2012,07,14,16,36,25.20
2012,07,14,16,37,25.30
2012,07,14,16,38,25.30
2012,07,14,16,39,25.30
2012,07,14,16,40,25.30
2012,07,14,16,41,25.40
2012,07,14,16,42,25.50
2012,07,14,16,43,25.60
2012,07,14,16,44,25.70
2012,07,14,16,45,25.80
2012,07,14,16,46,25.90
2012,07,14,16,47,26.00
2012,07,14,16,48,26.10
2012,07,14,16,49,26.20
2012,07,14,16,50,26.40
2012,07,14,16,51,26.50
2012,07,14,16,52,26.60
2012,07,14,16,53,26.60
2012,07,14,16,54,26.70
2012,07,14,16,55,26.70
2012,07,14,16,56,26.80
2012,07,14,16,57,26.80
2012,07,14,16,58,26.80
2012,07,14,16,59,26.80
2012,07,14,17,00,26.70
2012,07,14,17,01,26.50
2012,07,14,17,02,26.30
2012,07,14,17,03,26.10
2012,07,14,17,04,25.80
2012,07,14,17,05,25.60
2012,07,14,17,06,25.40
2012,07,14,17,07,25.30
2012,07,14,17,08,25.20
2012,07,14,17,09,25.20
2012,07,14,17,10,25.10
2012,07,14,17,11,25.00
2012,07,14,17,12,24.90
2012,07,14,17,13,24.90
2012,07,14,17,14,24.80
2012,07,14,17,15,24.70
2012,07,14,17,16,24.60
2012,07,14,17,17,24.60
2012,07,14,17,18,24.50
2012,07,14,17,19,24.50